Location: Morgantown
(40.9734°N, 80.6323°W)
Time: 23:55:07
(UTC+00:00)

Cosmos 2219 - Pass Details

Date: 29 October 2020
Orbit: 832 x 862 km, 71.1° (Epoch: 02 December)

Event Time Altitude Azimuth Distance (km) Brightness Sun altitude
Rises 23:10:10 0° 337° (NNW) 3,445 6.6 -9.8°
Reaches altitude 10° 23:12:38 10° 338° (NNW) 2,506 5.8 -10.2°
Maximum altitude 23:18:25 80° 66° (ENE) 878 3.2 -11.3°
Drops below altitude 10° 23:24:09 10° 154° (SSE) 2,488 5.5 -12.4°
Sets 23:26:36 0° 155° (SSE) 3,419 6.2 -12.8°
